Home > Weather > Schaffhausen > Past weeks

Flag for Switzerland Weather for the Past 2 Weeks in Schaffhausen, Schaffhausen, Switzerland

Now
50 °F

Cool.


Feels Like: 43 °F
Forecast: 37 / 44 °F
Wind: 22 mph from West

Location: Zurich-Kloten

Current Time: Feb 8, 2016 at 6:13:38 PM

Latest Report: Feb 8, 2016 at 5:00 PM


Visibility: N/A

Pressure: 29.72 "Hg

Humidity: 69%

Dew point: 40 °F

Location of SchaffhausenLocation

Historic Weather in Schaffhausen — Graph

°F

Schaffhausen Temperature Yesterday

Maximum temperature yesterday: 46 °F (at 1:00 PM)
Minimum temperature yesterday: 31 °F (at 3:00 AM)
Average temperature yesterday: 37 °F

High & Low Weather Summary for the Past Weeks

 TemperatureHumidityPressure
High57 °F (Feb 1, 12:00 PM)100% (Jan 25, 6:00 AM)30.60 "Hg (Jan 25, 6:00 AM)
Low28 °F (Jan 25, 6:00 AM)47% (Jan 25, 4:00 PM)29.67 "Hg (Feb 8, 4:00 PM)
Average43 °F81%30.25 "Hg
* Reported Jan 24 4:00 PM — Feb 8 4:00 PM, Schaffhausen, Weather by CustomWeather, © 2016

Note: Actual official high and low records may vary slightly from our data, if they occured in-between our weather recording intervals... More about our weather records

Advertising

Schaffhausen Weather History for the Previous 24 Hours

 ConditionsComfort  
Time TempWeatherWind HumidityBarometerVisibility
4:00 PM
Mon, Feb 8
53 °FOvercast.21 mph57%29.67 "Hg31 mi
3:00 PM53 °FCool.25 mph54%29.70 "HgN/A
2:00 PM51 °FCool.18 mph55%29.70 "HgN/A
1:00 PM51 °FOvercast.21 mph53%29.72 "Hg47 mi
12:00 PM49 °FCool.16 mph58%29.74 "HgN/A
11:00 AM45 °FCool.13 mph62%29.78 "HgN/A
10:00 AM44 °FOvercast.7 mph62%29.83 "Hg25 mi
9:00 AM44 °FQuite cool.12 mph60%29.86 "HgN/A
8:00 AM43 °FQuite cool.10 mph62%29.86 "HgN/A
7:00 AM41 °FOvercast.12 mph67%29.87 "Hg19 mi
6:00 AM39 °FChilly.6 mph74%29.89 "HgN/A
5:00 AM38 °FChilly.6 mph80%29.91 "HgN/A
3:00 AM38 °FChilly.8 mph80%29.94 "HgN/A
2:00 AM38 °FChilly.8 mph81%29.96 "HgN/A
12:00 AM40 °FQuite cool.14 mph77%29.98 "HgN/A
11:00 PM
Sun, Feb 7
40 °FQuite cool.10 mph80%29.98 "HgN/A
10:00 PM40 °FOvercast.9 mph82%29.97 "Hg14 mi
9:00 PM41 °FQuite cool.10 mph80%29.96 "HgN/A
8:00 PM40 °FQuite cool.5 mph85%29.95 "HgN/A
7:00 PM41 °FLight rain. Overcast.5 mph85%29.93 "Hg9 mi
6:00 PM41 °FQuite cool.9 mph90%29.92 "HgN/A
Weather by CustomWeather, © 2016

See weather overviewHow to use our weather pages